Weather History for Hugo, OK

Change the Weather History Date:

Wednesday, December 5, 2012

  Actual Average Record
Temperature  
Mean Temperature 53 °F -  
Max Temperature 64 °F 59 °F 64 °F (2012)
Min Temperature 42 °F 37 °F 33 °F (2013)
Degree Days  
Heating Degree Days 12    
Growing Degree Days 3 (Base 50)    
Moisture  
Dew Point 39 °F    
Average Humidity 60    
Maximum Humidity 82    
Minimum Humidity 42    
Precipitation  
Precipitation 0.00 in - - ()
Sea Level Pressure  
Sea Level Pressure 30.18 in    
Wind  
Wind Speed 4 mph (ESE)    
Max Wind Speed 9 mph    
Max Gust Speed -    
Visibility 10 miles    
Events      
Averages and records for this station are not official NWS values.
T = Trace of Precipitation, MM = Missing Value Source: NWS Daily Summary

Daily Weather History Graph

Daily Weather History Graph

Search for Another Location

Airport:

Trip Planner

Search our weather history database for the weather conditions in past years. The results will help you decide how hot, cold, wet, or windy it might be!

Date:

Astronomy

Dec. 05, 2012 Rise Set
Actual Time 7:13 AM CST 5:12 PM CST
Civil Twilight 6:45 AM CST 5:40 PM CST
Nautical Twilight 6:14 AM CST 6:11 PM CST
Astronomical Twilight 5:44 AM CST 6:41 PM CST
Moon 11:49 PM CST (12/5) 11:49 AM CST (12/5)
Length of Visible Light 10h 54m
Length of Day
9h 59m
Waning Gibbous, 59% of the Moon is Illuminated
Dec 5
Waning Gibbous
Dec 6
Last Quarter
Dec 13
New
Dec 19
First Quarter
Dec 28
Full

Hourly Weather History & Observations

Time (CST) Temp. Windchill Dew Point Humidity Pressure Visibility Wind Dir Wind Speed Gust Speed Precip Events Conditions
12:15 AM 47.3 °F - 30.9 °F 53% 30.26 in 10.0 mi Calm Calm - N/A   Clear
12:35 AM 46.8 °F - 30.9 °F 54% 30.26 in 10.0 mi NNW 6.9 mph - N/A   Clear
12:55 AM 45.5 °F 40.8 °F 31.1 °F 57% 30.26 in 10.0 mi North 9.2 mph - N/A   Clear
1:15 AM 46.6 °F - 31.1 °F 55% 30.25 in 10.0 mi North 5.8 mph - N/A   Clear
1:55 AM 45.3 °F 43.0 °F 31.1 °F 58% 30.24 in 10.0 mi NNE 4.6 mph - N/A   Clear
2:15 AM 45.7 °F 44.4 °F 31.3 °F 57% 30.25 in 10.0 mi NNE 3.5 mph - N/A   Clear
2:35 AM 43.5 °F 40.9 °F 31.1 °F 62% 30.25 in 10.0 mi North 4.6 mph - N/A   Clear
2:55 AM 43.0 °F 41.3 °F 31.1 °F 63% 30.25 in 10.0 mi North 3.5 mph - N/A   Clear
3:15 AM 42.4 °F 38.1 °F 31.1 °F 64% 30.25 in 10.0 mi North 6.9 mph - N/A   Clear
3:35 AM 42.1 °F 37.7 °F 31.6 °F 67% 30.25 in 10.0 mi North 6.9 mph - N/A   Clear
3:55 AM 43.3 °F 40.7 °F 32.0 °F 64% 30.26 in 10.0 mi NNW 4.6 mph - N/A   Mostly Cloudy
4:15 AM 43.9 °F 40.5 °F 32.0 °F 63% 30.26 in 10.0 mi NNW 5.8 mph - N/A   Mostly Cloudy
4:35 AM 45.0 °F 41.8 °F 32.7 °F 62% 30.26 in 10.0 mi North 5.8 mph - N/A   Overcast
4:55 AM 46.6 °F - 32.4 °F 58% 30.26 in 10.0 mi North 3.5 mph - N/A   Overcast
5:15 AM 46.6 °F - 32.7 °F 59% 30.26 in 10.0 mi Calm Calm - N/A   Overcast
5:35 AM 46.4 °F - 32.5 °F 59% 30.26 in 10.0 mi Calm Calm - N/A   Overcast
5:55 AM 45.5 °F - 32.0 °F 59% 30.26 in 10.0 mi Calm Calm - N/A   Mostly Cloudy
6:15 AM 45.5 °F - 32.0 °F 59% 30.26 in 10.0 mi Calm Calm - N/A   Mostly Cloudy
6:35 AM 44.4 °F - 32.0 °F 62% 30.26 in 10.0 mi Calm Calm - N/A   Mostly Cloudy
6:55 AM 44.8 °F - 32.5 °F 62% 30.26 in 10.0 mi Calm Calm - N/A   Overcast
8:35 AM 47.8 °F - 32.0 °F 54% 30.28 in 10.0 mi NE 3.5 mph - N/A   Overcast
8:55 AM 49.3 °F - 32.0 °F 51% 30.29 in 10.0 mi NE 5.8 mph - N/A   Overcast
9:15 AM 50.4 °F - 32.0 °F 49% 30.29 in 10.0 mi NE 5.8 mph - N/A   Overcast
9:35 AM 51.1 °F - 32.2 °F 48% 30.29 in 10.0 mi NE 6.9 mph - N/A   Overcast
9:55 AM 52.2 °F - 32.4 °F 47% 30.28 in 10.0 mi NE 4.6 mph - N/A   Overcast
10:15 AM 53.6 °F - 32.5 °F 45% 30.28 in 10.0 mi NE 4.6 mph - N/A   Overcast
10:35 AM 55.4 °F - 33.3 °F 43% 30.27 in 10.0 mi East 5.8 mph - N/A   Overcast
10:55 AM 57.7 °F - 34.5 °F 42% 30.26 in 10.0 mi East 5.8 mph - N/A   Overcast
11:15 AM 59.4 °F - 36.0 °F 42% 30.25 in 10.0 mi East 5.8 mph - N/A   Mostly Cloudy
11:35 AM 59.2 °F - 37.8 °F 45% 30.24 in 10.0 mi East 5.8 mph - N/A   Mostly Cloudy
11:55 AM 60.6 °F - 38.7 °F 44% 30.23 in 10.0 mi Calm Calm - N/A   Scattered Clouds
12:15 PM 61.9 °F - 41.2 °F 47% 30.21 in 10.0 mi ESE 5.8 mph - N/A   Clear
12:35 PM 63.7 °F - 42.4 °F 46% 30.20 in 10.0 mi ENE 4.6 mph - N/A   Clear
12:55 PM 63.5 °F - 42.8 °F 47% 30.18 in 10.0 mi ESE 4.6 mph - N/A   Clear
1:15 PM 63.9 °F - 43.5 °F 48% 30.17 in 10.0 mi SE 4.6 mph - N/A   Clear
1:35 PM 64.0 °F - 44.8 °F 50% 30.16 in 10.0 mi ESE 4.6 mph - N/A   Clear
1:55 PM 63.7 °F - 44.6 °F 50% 30.15 in 10.0 mi Calm Calm - N/A   Clear
2:15 PM 63.7 °F - 44.6 °F 50% 30.14 in 10.0 mi South 5.8 mph - N/A   Clear
2:35 PM 64.4 °F - 45.0 °F 49% 30.14 in 10.0 mi East 4.6 mph - N/A   Clear
2:55 PM 64.6 °F - 45.3 °F 50% 30.14 in 10.0 mi South 4.6 mph - N/A   Clear
3:15 PM 63.9 °F - 45.3 °F 51% 30.14 in 10.0 mi SE 4.6 mph - N/A   Clear
3:35 PM 63.5 °F - 45.5 °F 52% 30.13 in 10.0 mi SSE 5.8 mph - N/A   Clear
3:55 PM 62.1 °F - 45.1 °F 54% 30.13 in 10.0 mi SE 4.6 mph - N/A   Clear
4:15 PM 60.8 °F - 45.5 °F 57% 30.13 in 10.0 mi SE 5.8 mph - N/A   Clear
4:35 PM 60.1 °F - 45.9 °F 59% 30.12 in 10.0 mi SSE 5.8 mph - N/A   Clear
4:55 PM 59.2 °F - 45.9 °F 61% 30.13 in 10.0 mi SSE 3.5 mph - N/A   Clear
5:15 PM 58.1 °F - 45.7 °F 63% 30.13 in 10.0 mi Calm Calm - N/A   Clear
5:35 PM 57.6 °F - 45.7 °F 65% 30.12 in 10.0 mi SSE 3.5 mph - N/A   Clear
5:55 PM 56.5 °F - 45.5 °F 67% 30.12 in 10.0 mi SSE 3.5 mph - N/A   Clear
6:15 PM 55.8 °F - 45.5 °F 68% 30.10 in 10.0 mi SSE 4.6 mph - N/A   Clear
6:35 PM 55.6 °F - 45.5 °F 69% 30.11 in 10.0 mi SSE 4.6 mph - N/A   Clear
6:55 PM 55.0 °F - 45.5 °F 70% 30.10 in 10.0 mi SSE 4.6 mph - N/A   Clear
7:15 PM 55.6 °F - 45.5 °F 69% 30.09 in 10.0 mi SSE 5.8 mph - N/A   Clear
7:35 PM 55.4 °F - 45.3 °F 69% 30.10 in 10.0 mi SSE 4.6 mph - N/A   Clear
7:55 PM 54.9 °F - 45.1 °F 70% 30.10 in 10.0 mi South 3.5 mph - N/A   Clear
8:15 PM 54.0 °F - 45.0 °F 72% 30.10 in 10.0 mi SSE 3.5 mph - N/A   Clear
8:35 PM 54.1 °F - 45.1 °F 72% 30.11 in 10.0 mi Calm Calm - N/A   Clear
8:55 PM 53.2 °F - 45.1 °F 74% 30.09 in 10.0 mi SE 6.9 mph - N/A   Clear
9:15 PM 55.4 °F - 45.7 °F 70% 30.08 in 10.0 mi SE 9.2 mph - N/A   Clear
9:35 PM 54.7 °F - 45.5 °F 71% 30.08 in 10.0 mi SE 6.9 mph - N/A   Clear
9:55 PM 54.0 °F - 45.5 °F 73% 30.08 in 10.0 mi SE 8.1 mph - N/A   Clear
10:15 PM 53.2 °F - 45.5 °F 75% 30.08 in 10.0 mi SE 8.1 mph - N/A   Clear
10:35 PM 52.5 °F - 45.1 °F 76% 30.07 in 10.0 mi SE 6.9 mph - N/A   Clear
10:55 PM 51.3 °F - 44.8 °F 78% 30.07 in 10.0 mi SE 6.9 mph - N/A   Clear
11:15 PM 51.1 °F - 45.0 °F 80% 30.06 in 10.0 mi SE 6.9 mph - N/A   Clear
11:35 PM 50.9 °F - 44.8 °F 80% 30.06 in 10.0 mi SE 6.9 mph - N/A   Clear
11:55 PM 50.0 °F - 44.6 °F 82% 30.06 in 10.0 mi SE 6.9 mph - N/A   Clear